Time,TemperatureF,DewpointF,PressureIn,WindDirection,WindDirectionDegrees,WindSpeedMPH,WindSpeedGustMPH,Humidity,HourlyPrecipIn,Conditions,Clouds,dailyrainin,SoftwareType,DateUTC
2013-09-24 00:02:00,63.2,54.4,29.91,NNW,336,0.0,0.0,73,0.00,CLR,,0.00,WeatherDisplay:10.37,2013-09-24 07:02:00,
2013-09-24 00:07:00,63.1,54.3,29.91,NNW,335,0.0,0.0,73,0.00,CLR,,0.00,WeatherDisplay:10.37,2013-09-24 07:07:00,
2013-09-24 00:12:00,63.1,54.3,29.91,NNW,336,0.0,0.0,73,0.00,CLR,,0.00,WeatherDisplay:10.37,2013-09-24 07:12:00,
2013-09-24 00:17:00,63.0,54.6,29.91,NNW,336,0.0,0.0,74,0.00,CLR,,0.00,WeatherDisplay:10.37,2013-09-24 07:17:00,
2013-09-24 00:22:00,62.9,54.9,29.91,NNW,335,0.0,0.0,75,0.00,CLR,,0.00,WeatherDisplay:10.37,2013-09-24 07:22:00,
2013-09-24 00:27:00,62.7,54.7,29.91,NNW,336,0.0,0.0,75,0.00,CLR,,0.00,WeatherDisplay:10.37,2013-09-24 07:27:00,
2013-09-24 00:32:00,62.4,54.7,29.91,NNW,335,0.0,0.0,76,0.00,CLR,,0.00,WeatherDisplay:10.37,2013-09-24 07:32:00,
2013-09-24 00:37:00,62.1,54.4,29.91,NNW,335,0.0,0.0,76,0.00,CLR,,0.00,WeatherDisplay:10.37,2013-09-24 07:37:00,
2013-09-24 00:42:00,62.0,54.7,29.91,NNW,336,0.0,0.0,77,0.00,CLR,,0.00,WeatherDisplay:10.37,2013-09-24 07:42:00,
2013-09-24 00:47:00,61.8,54.9,29.91,NNW,335,0.0,0.0,78,0.00,CLR,,0.00,WeatherDisplay:10.37,2013-09-24 07:47:00,
2013-09-24 00:52:00,61.5,54.2,29.91,NNW,336,0.0,0.0,77,0.00,CLR,,0.00,WeatherDisplay:10.37,2013-09-24 07:52:00,
2013-09-24 00:57:00,61.4,54.5,29.91,NNW,335,0.0,0.0,78,0.00,CLR,,0.00,WeatherDisplay:10.37,2013-09-24 07:57:00,
2013-09-24 01:02:00,61.3,54.4,29.91,NNW,336,0.0,0.0,78,0.00,CLR,,0.00,WeatherDisplay:10.37,2013-09-24 08:02:00,
2013-09-24 01:07:00,61.2,54.6,29.91,NNW,336,0.0,0.0,79,0.00,CLR,,0.00,WeatherDisplay:10.37,2013-09-24 08:07:00,
2013-09-24 01:12:00,61.0,54.1,29.91,NNW,336,0.0,0.0,78,0.00,CLR,,0.00,WeatherDisplay:10.37,2013-09-24 08:12:00,
2013-09-24 01:17:00,60.9,54.3,29.91,NNW,336,0.0,0.0,79,0.00,CLR,,0.00,WeatherDisplay:10.37,2013-09-24 08:17:00,
2013-09-24 01:22:00,60.8,54.2,29.91,NNW,336,0.0,0.0,79,0.00,CLR,,0.00,WeatherDisplay:10.37,2013-09-24 08:22:00,
2013-09-24 01:27:00,60.7,54.1,29.91,NNW,335,0.0,0.0,79,0.00,CLR,,0.00,WeatherDisplay:10.37,2013-09-24 08:27:00,
2013-09-24 01:32:00,60.7,54.5,29.91,NNW,335,0.0,0.0,80,0.00,CLR,,0.00,WeatherDisplay:10.37,2013-09-24 08:32:00,
2013-09-24 01:37:00,60.7,54.8,29.91,NNW,335,0.0,0.0,81,0.00,CLR,,0.00,WeatherDisplay:10.37,2013-09-24 08:37:00,
2013-09-24 01:42:00,60.7,54.8,29.91,NNW,335,0.0,0.0,81,0.00,CLR,,0.00,WeatherDisplay:10.37,2013-09-24 08:42:00,
2013-09-24 01:47:00,60.5,54.6,29.91,NNW,335,0.0,0.0,81,0.00,CLR,,0.00,WeatherDisplay:10.37,2013-09-24 08:47:00,
2013-09-24 01:52:00,60.3,54.4,29.91,NNW,335,0.0,0.0,81,0.00,CLR,,0.00,WeatherDisplay:10.37,2013-09-24 08:52:00,
2013-09-24 01:57:00,60.2,54.3,29.91,NNW,335,0.0,0.0,81,0.00,CLR,,0.00,WeatherDisplay:10.37,2013-09-24 08:57:00,
2013-09-24 02:02:00,60.1,54.6,29.91,NNW,335,0.0,0.0,82,0.00,CLR,,0.00,WeatherDisplay:10.37,2013-09-24 09:02:00,
2013-09-24 02:07:00,60.0,54.2,29.91,NNW,336,0.0,0.0,81,0.00,CLR,,0.00,WeatherDisplay:10.37,2013-09-24 09:07:00,
2013-09-24 02:12:00,59.8,54.0,29.91,NNW,335,0.0,0.0,81,0.00,CLR,,0.00,WeatherDisplay:10.37,2013-09-24 09:12:00,
2013-09-24 02:17:00,59.5,54.0,29.90,NNW,335,0.0,0.0,82,0.00,CLR,,0.00,WeatherDisplay:10.37,2013-09-24 09:17:00,
2013-09-24 02:22:00,59.4,53.9,29.90,NNW,335,0.0,0.0,82,0.00,CLR,,0.00,WeatherDisplay:10.37,2013-09-24 09:22:00,
2013-09-24 02:27:00,59.2,53.7,29.90,NNW,336,0.0,0.0,82,0.00,CLR,,0.00,WeatherDisplay:10.37,2013-09-24 09:27:00,
2013-09-24 02:32:00,59.1,53.6,29.90,NNW,335,0.0,0.0,82,0.00,CLR,,0.00,WeatherDisplay:10.37,2013-09-24 09:32:00,
2013-09-24 02:37:00,59.1,53.9,29.90,NNW,336,0.0,0.0,83,0.00,CLR,,0.00,WeatherDisplay:10.37,2013-09-24 09:37:00,
2013-09-24 02:42:00,59.0,53.8,29.90,NNW,336,0.0,0.0,83,0.00,CLR,,0.00,WeatherDisplay:10.37,2013-09-24 09:42:00,
2013-09-24 02:47:00,58.9,53.4,29.90,NNW,335,0.0,0.0,82,0.00,CLR,,0.00,WeatherDisplay:10.37,2013-09-24 09:47:00,
2013-09-24 02:52:00,58.9,53.7,29.89,NNW,335,0.0,0.0,83,0.00,CLR,,0.00,WeatherDisplay:10.37,2013-09-24 09:52:00,
2013-09-24 02:57:00,58.8,54.0,29.89,NNW,336,0.0,0.0,84,0.00,CLR,,0.00,WeatherDisplay:10.37,2013-09-24 09:57:00,
2013-09-24 03:02:00,58.7,53.5,29.89,NNW,336,0.0,0.0,83,0.00,CLR,,0.00,WeatherDisplay:10.37,2013-09-24 10:02:00,
2013-09-24 03:07:00,58.6,53.5,29.89,NNW,335,0.0,0.0,83,0.00,CLR,,0.00,WeatherDisplay:10.37,2013-09-24 10:07:00,
2013-09-24 03:12:00,58.6,53.5,29.89,NNW,335,0.0,0.0,83,0.00,CLR,,0.00,WeatherDisplay:10.37,2013-09-24 10:12:00,
2013-09-24 03:17:00,58.5,53.4,29.89,NNW,336,0.0,0.0,83,0.00,CLR,,0.00,WeatherDisplay:10.37,2013-09-24 10:17:00,
2013-09-24 03:22:00,58.4,53.3,29.89,NNW,336,0.0,0.0,83,0.00,CLR,,0.00,WeatherDisplay:10.37,2013-09-24 10:22:00,
2013-09-24 03:27:00,58.3,53.2,29.89,NNW,335,0.0,0.0,83,0.00,CLR,,0.00,WeatherDisplay:10.37,2013-09-24 10:27:00,
2013-09-24 03:32:00,58.2,53.1,29.88,NNW,335,0.0,0.0,83,0.00,CLR,,0.00,WeatherDisplay:10.37,2013-09-24 10:32:00,
2013-09-24 03:37:00,58.1,53.0,29.89,NNW,335,0.0,0.0,83,0.00,CLR,,0.00,WeatherDisplay:10.37,2013-09-24 10:37:00,
2013-09-24 03:42:00,58.0,52.9,29.89,NNW,335,0.0,0.0,83,0.00,CLR,,0.00,WeatherDisplay:10.37,2013-09-24 10:42:00,
2013-09-24 03:47:00,58.0,53.2,29.89,NNW,335,0.0,0.0,84,0.00,CLR,,0.00,WeatherDisplay:10.37,2013-09-24 10:47:00,
2013-09-24 03:52:00,58.0,53.2,29.88,NNW,335,0.0,0.0,84,0.00,CLR,,0.00,WeatherDisplay:10.37,2013-09-24 10:52:00,
2013-09-24 03:57:00,57.8,52.7,29.89,NNW,335,0.0,0.0,83,0.00,CLR,,0.00,WeatherDisplay:10.37,2013-09-24 10:57:00,
2013-09-24 04:02:00,57.7,52.2,29.88,NNW,336,0.0,0.0,82,0.00,CLR,,0.00,WeatherDisplay:10.37,2013-09-24 11:02:00,
2013-09-24 04:07:00,57.7,52.2,29.88,NNW,335,0.0,0.0,82,0.00,CLR,,0.00,WeatherDisplay:10.37,2013-09-24 11:07:00,
2013-09-24 04:12:00,57.6,52.1,29.89,NNW,335,0.0,0.0,82,0.00,CLR,,0.00,WeatherDisplay:10.37,2013-09-24 11:12:00,
2013-09-24 04:17:00,57.7,52.9,29.88,NNW,335,0.0,0.0,84,0.00,CLR,,0.00,WeatherDisplay:10.37,2013-09-24 11:17:00,
2013-09-24 04:22:00,57.7,52.9,29.88,NNW,335,0.0,0.0,84,0.00,CLR,,0.00,WeatherDisplay:10.37,2013-09-24 11:22:00,
2013-09-24 04:27:00,57.7,52.6,29.89,NNW,335,0.0,0.0,83,0.00,CLR,,0.00,WeatherDisplay:10.37,2013-09-24 11:27:00,
2013-09-24 04:32:00,57.7,52.6,29.88,NNW,336,0.0,0.0,83,0.00,CLR,,0.00,WeatherDisplay:10.37,2013-09-24 11:32:00,
2013-09-24 04:37:00,57.6,52.1,29.88,NNW,335,0.0,0.0,82,0.00,CLR,,0.00,WeatherDisplay:10.37,2013-09-24 11:37:00,
2013-09-24 04:42:00,57.6,52.1,29.88,NNW,335,0.0,0.0,82,0.00,CLR,,0.00,WeatherDisplay:10.37,2013-09-24 11:42:00,
2013-09-24 04:47:00,57.6,52.1,29.89,NNW,335,0.0,0.0,82,0.00,CLR,,0.00,WeatherDisplay:10.37,2013-09-24 11:47:00,
2013-09-24 04:52:00,57.6,52.1,29.88,NNW,336,0.0,0.0,82,0.00,CLR,,0.00,WeatherDisplay:10.37,2013-09-24 11:52:00,
2013-09-24 04:57:00,57.5,52.0,29.88,NNW,336,0.0,0.0,82,0.00,CLR,,0.00,WeatherDisplay:10.37,2013-09-24 11:57:00,
2013-09-24 05:02:00,57.4,51.9,29.89,NNW,335,0.0,0.0,82,0.00,CLR,,0.00,WeatherDisplay:10.37,2013-09-24 12:02:00,
2013-09-24 05:07:00,57.2,51.8,29.89,NNW,335,0.0,0.0,82,0.00,CLR,,0.00,WeatherDisplay:10.37,2013-09-24 12:07:00,
2013-09-24 05:12:00,57.1,52.0,29.89,NNW,335,0.0,0.0,83,0.00,CLR,,0.00,WeatherDisplay:10.37,2013-09-24 12:12:00,
2013-09-24 05:17:00,57.1,52.0,29.89,NNW,335,0.0,0.0,83,0.00,CLR,,0.00,WeatherDisplay:10.37,2013-09-24 12:17:00,
2013-09-24 05:22:00,57.0,52.2,29.89,NNW,335,0.0,0.0,84,0.00,CLR,,0.00,WeatherDisplay:10.37,2013-09-24 12:22:00,
2013-09-24 05:27:00,56.8,52.0,29.89,NNW,335,0.0,0.0,84,0.00,CLR,,0.00,WeatherDisplay:10.37,2013-09-24 12:27:00,
2013-09-24 05:32:00,56.7,51.9,29.89,NNW,336,0.0,0.0,84,0.00,CLR,,0.00,WeatherDisplay:10.37,2013-09-24 12:32:00,
2013-09-24 05:37:00,56.6,52.1,29.89,NNW,335,0.0,0.0,85,0.00,CLR,,0.00,WeatherDisplay:10.37,2013-09-24 12:37:00,
2013-09-24 05:42:00,56.4,51.9,29.89,NNW,336,0.0,0.0,85,0.00,CLR,,0.00,WeatherDisplay:10.37,2013-09-24 12:42:00,
2013-09-24 05:47:00,56.2,51.7,29.89,NNW,336,0.0,0.0,85,0.00,CLR,,0.00,WeatherDisplay:10.37,2013-09-24 12:47:00,
2013-09-24 05:52:00,56.1,51.7,29.90,NNW,335,0.0,0.0,85,0.00,CLR,,0.00,WeatherDisplay:10.37,2013-09-24 12:52:00,
2013-09-24 05:57:00,56.0,51.9,29.89,NNW,336,0.0,0.0,86,0.00,CLR,,0.00,WeatherDisplay:10.37,2013-09-24 12:57:00,
2013-09-24 06:02:00,56.0,51.9,29.89,NNW,336,0.0,0.0,86,0.00,CLR,,0.00,WeatherDisplay:10.37,2013-09-24 13:02:00,
2013-09-24 06:07:00,56.1,51.7,29.89,NNW,335,0.0,0.0,85,0.00,CLR,,0.00,WeatherDisplay:10.37,2013-09-24 13:07:00,
2013-09-24 06:12:00,56.1,51.7,29.90,NNW,336,0.0,0.0,85,0.00,CLR,,0.00,WeatherDisplay:10.37,2013-09-24 13:12:00,
2013-09-24 06:17:00,56.0,51.6,29.89,NNW,335,0.0,0.0,85,0.00,CLR,,0.00,WeatherDisplay:10.37,2013-09-24 13:17:00,
2013-09-24 06:22:00,55.8,51.4,29.89,NNW,335,0.0,0.0,85,0.00,CLR,,0.00,WeatherDisplay:10.37,2013-09-24 13:22:00,
2013-09-24 06:27:00,55.8,51.4,29.89,NNW,336,0.0,0.0,85,0.00,CLR,,0.00,WeatherDisplay:10.37,2013-09-24 13:27:00,
2013-09-24 06:32:00,55.7,51.6,29.89,NNW,335,0.0,0.0,86,0.00,CLR,,0.00,WeatherDisplay:10.37,2013-09-24 13:32:00,
2013-09-24 06:37:00,55.7,51.6,29.89,NNW,335,0.0,0.0,86,0.00,CLR,,0.00,WeatherDisplay:10.37,2013-09-24 13:37:00,
2013-09-24 06:42:00,55.5,51.4,29.90,NNW,336,0.0,0.0,86,0.00,CLR,,0.00,WeatherDisplay:10.37,2013-09-24 13:42:00,
2013-09-24 06:47:00,55.5,51.4,29.90,NNW,335,0.0,0.0,86,0.00,CLR,,0.00,WeatherDisplay:10.37,2013-09-24 13:47:00,
2013-09-24 06:52:00,55.5,51.4,29.90,NNW,336,0.0,0.0,86,0.00,CLR,,0.00,WeatherDisplay:10.37,2013-09-24 13:52:00,
2013-09-24 06:57:00,55.4,51.3,29.90,NNW,335,0.0,0.0,86,0.00,CLR,,0.00,WeatherDisplay:10.37,2013-09-24 13:57:00,
2013-09-24 07:02:00,55.5,51.4,29.90,NNW,336,0.0,0.0,86,0.00,CLR,,0.00,WeatherDisplay:10.37,2013-09-24 14:02:00,
2013-09-24 07:07:00,55.5,51.4,29.90,NNW,335,0.0,0.0,86,0.00,CLR,,0.00,WeatherDisplay:10.37,2013-09-24 14:07:00,
2013-09-24 07:12:00,55.5,51.4,29.90,NNW,335,0.0,0.0,86,0.00,CLR,,0.00,WeatherDisplay:10.37,2013-09-24 14:12:00,
2013-09-24 07:17:00,55.5,51.7,29.90,NNW,336,0.0,0.0,87,0.00,CLR,,0.00,WeatherDisplay:10.37,2013-09-24 14:17:00,
2013-09-24 07:22:00,55.7,51.9,29.90,NNW,335,0.0,0.0,87,0.00,CLR,,0.00,WeatherDisplay:10.37,2013-09-24 14:22:00,
2013-09-24 07:27:00,55.9,52.1,29.90,NNW,335,0.0,0.0,87,0.00,CLR,,0.00,WeatherDisplay:10.37,2013-09-24 14:27:00,
2013-09-24 07:32:00,56.1,52.3,29.91,NNW,336,0.0,0.0,87,0.00,CLR,,0.00,WeatherDisplay:10.37,2013-09-24 14:32:00,
2013-09-24 07:37:00,56.3,52.5,29.91,NNW,335,0.0,0.0,87,0.00,CLR,,0.00,WeatherDisplay:10.37,2013-09-24 14:37:00,
2013-09-24 07:42:00,56.6,52.8,29.91,NNW,335,0.0,0.0,87,0.00,CLR,,0.00,WeatherDisplay:10.37,2013-09-24 14:42:00,
2013-09-24 07:47:00,56.9,53.1,29.91,NNW,335,0.0,0.0,87,0.00,CLR,,0.00,WeatherDisplay:10.37,2013-09-24 14:47:00,
2013-09-24 07:52:00,57.3,53.5,29.91,NNW,336,0.0,0.0,87,0.00,CLR,,0.00,WeatherDisplay:10.37,2013-09-24 14:52:00,
2013-09-24 07:57:00,57.6,53.4,29.91,NNW,335,0.0,0.0,86,0.00,CLR,,0.00,WeatherDisplay:10.37,2013-09-24 14:57:00,
2013-09-24 08:02:00,57.9,53.4,29.91,NNW,335,0.0,0.0,85,0.00,CLR,,0.00,WeatherDisplay:10.37,2013-09-24 15:02:00,
2013-09-24 08:07:00,58.3,53.5,29.91,NNW,336,0.0,0.0,84,0.00,CLR,,0.00,WeatherDisplay:10.37,2013-09-24 15:07:00,
2013-09-24 08:12:00,58.7,53.2,29.91,NNW,335,0.0,0.0,82,0.00,CLR,,0.00,WeatherDisplay:10.37,2013-09-24 15:12:00,
2013-09-24 08:17:00,59.2,53.0,29.91,NNW,335,0.0,0.0,80,0.00,CLR,,0.00,WeatherDisplay:10.37,2013-09-24 15:17:00,
2013-09-24 08:22:00,59.7,53.2,29.92,NNW,335,0.0,0.0,79,0.00,CLR,,0.00,WeatherDisplay:10.37,2013-09-24 15:22:00,
2013-09-24 08:27:00,60.4,53.9,29.92,NNW,335,0.0,0.0,79,0.00,CLR,,0.00,WeatherDisplay:10.37,2013-09-24 15:27:00,
2013-09-24 08:32:00,61.1,53.8,29.92,NNW,335,0.0,0.0,77,0.00,CLR,,0.00,WeatherDisplay:10.37,2013-09-24 15:32:00,
2013-09-24 08:37:00,62.0,53.6,29.92,NNW,336,0.0,0.0,74,0.00,CLR,,0.00,WeatherDisplay:10.37,2013-09-24 15:37:00,
2013-09-24 08:42:00,63.3,54.1,29.92,NNW,335,0.0,0.0,72,0.00,CLR,,0.00,WeatherDisplay:10.37,2013-09-24 15:42:00,
2013-09-24 08:47:00,64.1,53.7,29.92,NNW,336,0.0,0.0,69,0.00,CLR,,0.00,WeatherDisplay:10.37,2013-09-24 15:47:00,
2013-09-24 08:52:00,64.9,53.7,29.93,NNW,335,0.0,0.0,67,0.00,CLR,,0.00,WeatherDisplay:10.37,2013-09-24 15:52:00,
2013-09-24 08:57:00,65.9,53.8,29.93,NNW,335,0.0,0.0,65,0.00,CLR,,0.00,WeatherDisplay:10.37,2013-09-24 15:57:00,
2013-09-24 09:02:00,66.7,53.3,29.93,NNW,336,0.0,0.0,62,0.00,CLR,,0.00,WeatherDisplay:10.37,2013-09-24 16:02:00,
2013-09-24 09:07:00,67.3,52.9,29.93,NNW,335,0.0,0.0,60,0.00,CLR,,0.00,WeatherDisplay:10.37,2013-09-24 16:07:00,
2013-09-24 09:12:00,68.0,53.1,29.93,NNW,335,0.0,0.0,59,0.00,CLR,,0.00,WeatherDisplay:10.37,2013-09-24 16:12:00,
2013-09-24 09:17:00,68.4,53.0,29.93,NNW,335,0.0,0.0,58,0.00,CLR,,0.00,WeatherDisplay:10.37,2013-09-24 16:17:00,
2013-09-24 09:22:00,69.0,54.1,29.93,NNW,335,0.0,0.0,59,0.00,CLR,,0.00,WeatherDisplay:10.37,2013-09-24 16:22:00,
2013-09-24 09:27:00,69.2,53.3,29.93,NNW,335,0.0,0.0,57,0.00,CLR,,0.00,WeatherDisplay:10.37,2013-09-24 16:27:00,
2013-09-24 09:32:00,69.7,53.8,29.93,NNW,336,0.0,0.0,57,0.00,CLR,,0.00,WeatherDisplay:10.37,2013-09-24 16:32:00,
2013-09-24 09:37:00,70.2,53.8,29.93,NNW,333,1.2,0.0,56,0.00,CLR,,0.00,WeatherDisplay:10.37,2013-09-24 16:37:00,
2013-09-24 09:42:00,70.8,53.3,29.93,WNW,297,1.2,1.2,54,0.00,CLR,,0.00,WeatherDisplay:10.37,2013-09-24 16:42:00,
2013-09-24 09:47:00,71.3,53.8,29.93,WNW,285,0.0,0.0,54,0.00,CLR,,0.00,WeatherDisplay:10.37,2013-09-24 16:47:00,
2013-09-24 09:52:00,71.7,53.7,29.93,WNW,285,0.0,0.0,53,0.00,CLR,,0.00,WeatherDisplay:10.37,2013-09-24 16:52:00,
2013-09-24 09:57:00,72.0,53.9,29.93,West,269,1.2,1.2,53,0.00,CLR,,0.00,WeatherDisplay:10.37,2013-09-24 16:57:00,
2013-09-24 10:02:00,72.8,54.1,29.93,NNW,328,3.5,3.5,52,0.00,CLR,,0.00,WeatherDisplay:10.37,2013-09-24 17:02:00,
2013-09-24 10:08:00,73.5,54.3,29.93,NNW,328,0.0,0.0,51,0.00,CLR,,0.00,WeatherDisplay:10.37,2013-09-24 17:08:00,
2013-09-24 10:13:00,73.9,54.1,29.93,West,263,1.2,0.0,50,0.00,CLR,,0.00,WeatherDisplay:10.37,2013-09-24 17:13:00,
2013-09-24 10:18:00,74.1,54.3,29.93,NNW,341,2.3,2.3,50,0.00,CLR,,0.00,WeatherDisplay:10.37,2013-09-24 17:18:00,
2013-09-24 10:23:00,74.3,55.0,29.93,SSW,204,1.2,0.0,51,0.00,CLR,,0.00,WeatherDisplay:10.37,2013-09-24 17:23:00,
2013-09-24 10:28:00,74.6,54.7,29.93,West,260,1.2,0.0,50,0.00,CLR,,0.00,WeatherDisplay:10.37,2013-09-24 17:28:00,
2013-09-24 10:33:00,74.9,55.0,29.93,SSW,201,1.2,1.2,50,0.00,CLR,,0.00,WeatherDisplay:10.37,2013-09-24 17:33:00,
2013-09-24 10:38:00,75.3,55.4,29.93,North,353,1.2,1.2,50,0.00,CLR,,0.00,WeatherDisplay:10.37,2013-09-24 17:38:00,
2013-09-24 10:43:00,75.5,55.6,29.92,North,4,3.5,3.5,50,0.00,CLR,,0.00,WeatherDisplay:10.37,2013-09-24 17:43:00,
2013-09-24 10:48:00,75.8,55.3,29.92,West,274,1.2,1.2,49,0.00,CLR,,0.00,WeatherDisplay:10.37,2013-09-24 17:48:00,
2013-09-24 10:53:00,76.1,55.0,29.92,North,352,1.0,1.0,48,0.00,CLR,,0.00,WeatherDisplay:10.37,2013-09-24 17:53:00,
2013-09-24 10:58:00,76.4,55.3,29.92,NW,324,3.5,3.5,48,0.00,CLR,,0.00,WeatherDisplay:10.37,2013-09-24 17:58:00,
2013-09-24 11:03:00,76.7,55.5,29.91,WNW,283,1.2,1.2,48,0.00,CLR,,0.00,WeatherDisplay:10.37,2013-09-24 18:03:00,
2013-09-24 11:09:00,77.1,55.9,29.91,NNE,26,2.3,2.3,48,0.00,CLR,,0.00,WeatherDisplay:10.37,2013-09-24 18:09:00,
2013-09-24 11:14:00,77.6,55.8,29.91,NNW,330,1.2,1.2,47,0.00,CLR,,0.00,WeatherDisplay:10.37,2013-09-24 18:14:00,
2013-09-24 11:19:00,77.9,55.5,29.91,SSE,159,1.2,0.0,46,0.00,CLR,,0.00,WeatherDisplay:10.37,2013-09-24 18:19:00,
2013-09-24 11:24:00,78.2,55.7,29.91,NNW,335,2.0,2.0,46,0.00,CLR,,0.00,WeatherDisplay:10.37,2013-09-24 18:24:00,
2013-09-24 11:29:00,78.5,54.8,29.91,SW,232,0.0,0.0,44,0.00,CLR,,0.00,WeatherDisplay:10.37,2013-09-24 18:29:00,
2013-09-24 11:34:00,78.8,56.3,29.90,NNW,345,1.2,0.0,46,0.00,CLR,,0.00,WeatherDisplay:10.37,2013-09-24 18:34:00,
2013-09-24 11:39:00,79.1,55.3,29.90,SW,233,1.2,0.0,44,0.00,CLR,,0.00,WeatherDisplay:10.37,2013-09-24 18:39:00,
2013-09-24 11:44:00,79.5,55.0,29.90,NW,315,1.2,1.2,43,0.00,CLR,,0.00,WeatherDisplay:10.37,2013-09-24 18:44:00,
2013-09-24 11:49:00,79.6,54.5,29.89,NNE,27,2.3,2.3,42,0.00,CLR,,0.00,WeatherDisplay:10.37,2013-09-24 18:49:00,
2013-09-24 11:54:00,79.7,55.2,29.89,North,353,1.2,1.2,43,0.00,CLR,,0.00,WeatherDisplay:10.37,2013-09-24 18:54:00,
2013-09-24 11:59:00,80.3,55.8,29.89,WNW,288,1.2,1.2,43,0.00,CLR,,0.00,WeatherDisplay:10.37,2013-09-24 18:59:00,
2013-09-24 12:04:00,80.8,55.6,29.89,WSW,256,0.0,0.0,42,0.00,CLR,,0.00,WeatherDisplay:10.37,2013-09-24 19:04:00,
2013-09-24 12:09:00,81.3,54.7,29.88,West,272,3.5,3.5,40,0.00,CLR,,0.00,WeatherDisplay:10.37,2013-09-24 19:09:00,
2013-09-24 12:14:00,81.4,56.1,29.88,NW,311,2.3,2.3,42,0.00,CLR,,0.00,WeatherDisplay:10.37,2013-09-24 19:14:00,
2013-09-24 12:19:00,82.0,56.6,29.88,SE,129,1.2,0.0,42,0.00,CLR,,0.00,WeatherDisplay:10.37,2013-09-24 19:19:00,
2013-09-24 12:24:00,82.6,55.8,29.87,SW,222,1.2,1.2,40,0.00,CLR,,0.00,WeatherDisplay:10.37,2013-09-24 19:24:00,
2013-09-24 12:29:00,83.4,55.8,29.87,NNW,335,3.5,3.5,39,0.00,CLR,,0.00,WeatherDisplay:10.37,2013-09-24 19:29:00,
2013-09-24 12:34:00,83.6,56.0,29.87,NE,56,1.2,1.2,39,0.00,CLR,,0.00,WeatherDisplay:10.37,2013-09-24 19:34:00,
2013-09-24 12:39:00,84.0,56.4,29.87,West,278,2.3,2.3,39,0.00,CLR,,0.00,WeatherDisplay:10.37,2013-09-24 19:39:00,
2013-09-24 12:44:00,84.4,56.7,29.86,North,6,3.5,3.5,39,0.00,CLR,,0.00,WeatherDisplay:10.37,2013-09-24 19:44:00,
2013-09-24 12:49:00,84.4,56.7,29.86,West,259,4.0,4.0,39,0.00,CLR,,0.00,WeatherDisplay:10.37,2013-09-24 19:49:00,
2013-09-24 12:54:00,84.7,57.0,29.85,SW,235,0.0,0.0,39,0.00,CLR,,0.00,WeatherDisplay:10.37,2013-09-24 19:54:00,
2013-09-24 12:59:00,85.1,55.1,29.85,NE,46,1.2,1.3,36,0.00,CLR,,0.00,WeatherDisplay:10.37,2013-09-24 19:59:00,
2013-09-24 13:04:00,85.2,56.7,29.85,North,356,3.5,3.5,38,0.00,CLR,,0.00,WeatherDisplay:10.37,2013-09-24 20:04:00,
2013-09-24 13:09:00,85.7,57.2,29.85,East,100,0.0,0.0,38,0.00,CLR,,0.00,WeatherDisplay:10.37,2013-09-24 20:09:00,
2013-09-24 13:14:00,86.2,56.9,29.85,SSE,166,1.2,1.2,37,0.00,CLR,,0.00,WeatherDisplay:10.37,2013-09-24 20:14:00,
2013-09-24 13:19:00,86.3,56.2,29.84,WNW,288,3.5,3.5,36,0.00,CLR,,0.00,WeatherDisplay:10.37,2013-09-24 20:19:00,
2013-09-24 13:24:00,86.3,57.0,29.84,SSE,148,1.2,1.2,37,0.00,CLR,,0.00,WeatherDisplay:10.37,2013-09-24 20:24:00,
2013-09-24 13:29:00,86.7,56.6,29.84,South,183,0.0,0.0,36,0.00,CLR,,0.00,WeatherDisplay:10.37,2013-09-24 20:29:00,
2013-09-24 13:34:00,86.9,56.7,29.83,SW,229,3.5,3.5,36,0.00,CLR,,0.00,WeatherDisplay:10.37,2013-09-24 20:34:00,
2013-09-24 13:39:00,87.2,56.2,29.83,WSW,257,3.5,3.5,35,0.00,CLR,,0.00,WeatherDisplay:10.37,2013-09-24 20:39:00,
2013-09-24 13:44:00,87.2,56.2,29.83,West,281,3.5,3.5,35,0.00,CLR,,0.00,WeatherDisplay:10.37,2013-09-24 20:44:00,
2013-09-24 13:49:00,86.9,56.0,29.83,WNW,290,3.5,3.5,35,0.00,CLR,,0.00,WeatherDisplay:10.37,2013-09-24 20:49:00,
2013-09-24 13:54:00,87.0,56.8,29.83,NNW,330,3.5,3.5,36,0.00,CLR,,0.00,WeatherDisplay:10.37,2013-09-24 20:54:00,
2013-09-24 13:59:00,86.8,55.1,29.83,SSW,207,3.5,3.5,34,0.00,CLR,,0.00,WeatherDisplay:10.37,2013-09-24 20:59:00,
2013-09-24 14:04:00,86.8,55.9,29.83,WNW,289,2.0,2.0,35,0.00,CLR,,0.00,WeatherDisplay:10.37,2013-09-24 21:04:00,
2013-09-24 14:09:00,87.5,56.5,29.82,NW,307,1.2,1.2,35,0.00,CLR,,0.00,WeatherDisplay:10.37,2013-09-24 21:09:00,
2013-09-24 14:14:00,87.1,55.3,29.83,NNW,335,3.5,3.5,34,0.00,CLR,,0.00,WeatherDisplay:10.37,2013-09-24 21:14:00,
2013-09-24 14:19:00,86.9,55.2,29.82,North,360,7.0,7.0,34,0.00,CLR,,0.00,WeatherDisplay:10.37,2013-09-24 21:19:00,
2013-09-24 14:24:00,86.8,55.1,29.82,NNE,15,3.5,3.5,34,0.00,CLR,,0.00,WeatherDisplay:10.37,2013-09-24 21:24:00,
2013-09-24 14:29:00,87.1,55.3,29.82,ESE,115,2.3,2.3,34,0.00,CLR,,0.00,WeatherDisplay:10.37,2013-09-24 21:29:00,
2013-09-24 14:34:00,87.7,55.0,29.82,NNW,336,1.2,1.2,33,0.00,CLR,,0.00,WeatherDisplay:10.37,2013-09-24 21:34:00,
2013-09-24 14:39:00,87.8,54.3,29.82,WSW,246,1.2,0.0,32,0.00,CLR,,0.00,WeatherDisplay:10.37,2013-09-24 21:39:00,
2013-09-24 14:44:00,88.1,54.5,29.81,NNW,333,2.3,2.3,32,0.00,CLR,,0.00,WeatherDisplay:10.37,2013-09-24 21:44:00,
2013-09-24 14:49:00,88.3,54.7,29.81,WNW,290,2.3,2.3,32,0.00,CLR,,0.00,WeatherDisplay:10.37,2013-09-24 21:49:00,
2013-09-24 14:54:00,88.3,54.7,29.81,NW,312,3.5,3.5,32,0.00,CLR,,0.00,WeatherDisplay:10.37,2013-09-24 21:54:00,
2013-09-24 14:59:00,88.5,55.7,29.81,West,263,1.2,1.2,33,0.00,CLR,,0.00,WeatherDisplay:10.37,2013-09-24 21:59:00,
2013-09-24 15:04:00,88.8,54.3,29.81,SW,217,2.3,2.3,31,0.00,CLR,,0.00,WeatherDisplay:10.37,2013-09-24 22:04:00,
2013-09-24 15:09:00,89.1,54.5,29.81,North,350,1.2,1.3,31,0.00,CLR,,0.00,WeatherDisplay:10.37,2013-09-24 22:09:00,
2013-09-24 15:14:00,89.2,53.7,29.80,SW,231,2.0,2.0,30,0.00,CLR,,0.00,WeatherDisplay:10.37,2013-09-24 22:14:00,
2013-09-24 15:19:00,89.4,55.7,29.80,NNW,330,1.2,1.2,32,0.00,CLR,,0.00,WeatherDisplay:10.37,2013-09-24 22:19:00,
2013-09-24 15:24:00,89.3,53.8,29.80,WNW,300,1.2,1.3,30,0.00,CLR,,0.00,WeatherDisplay:10.37,2013-09-24 22:24:00,
2013-09-24 15:29:00,88.7,51.4,29.80,NW,318,3.5,3.5,28,0.00,CLR,,0.00,WeatherDisplay:10.37,2013-09-24 22:29:00,
2013-09-24 15:34:00,88.4,50.2,29.80,WSW,257,1.2,1.2,27,0.00,CLR,,0.00,WeatherDisplay:10.37,2013-09-24 22:34:00,
2013-09-24 15:39:00,88.9,51.6,29.79,WSW,256,1.0,1.0,28,0.00,CLR,,0.00,WeatherDisplay:10.37,2013-09-24 22:39:00,
2013-09-24 15:44:00,89.1,51.7,29.79,SW,225,1.2,1.2,28,0.00,CLR,,0.00,WeatherDisplay:10.37,2013-09-24 22:44:00,
2013-09-24 15:49:00,89.5,52.1,29.79,North,354,2.3,2.3,28,0.00,CLR,,0.00,WeatherDisplay:10.37,2013-09-24 22:49:00,
2013-09-24 15:54:00,89.9,53.4,29.78,ESE,106,1.2,1.2,29,0.00,CLR,,0.00,WeatherDisplay:10.37,2013-09-24 22:54:00,
2013-09-24 15:59:00,89.9,52.4,29.79,West,262,2.3,2.3,28,0.00,CLR,,0.00,WeatherDisplay:10.37,2013-09-24 22:59:00,
2013-09-24 16:04:00,90.0,53.5,29.78,South,181,0.0,0.0,29,0.00,CLR,,0.00,WeatherDisplay:10.37,2013-09-24 23:04:00,
2013-09-24 16:09:00,90.1,53.6,29.78,WNW,302,1.2,1.2,29,0.00,CLR,,0.00,WeatherDisplay:10.37,2013-09-24 23:09:00,
2013-09-24 16:14:00,90.5,53.9,29.78,NW,315,1.2,0.0,29,0.00,CLR,,0.00,WeatherDisplay:10.37,2013-09-24 23:14:00,
2013-09-24 16:19:00,90.9,53.3,29.78,NNW,333,2.3,2.3,28,0.00,CLR,,0.00,WeatherDisplay:10.37,2013-09-24 23:19:00,
2013-09-24 16:24:00,91.1,53.5,29.78,SSW,207,0.0,0.2,28,0.00,CLR,,0.00,WeatherDisplay:10.37,2013-09-24 23:24:00,
2013-09-24 16:29:00,91.6,51.9,29.78,WNW,285,1.2,0.0,26,0.00,CLR,,0.00,WeatherDisplay:10.37,2013-09-24 23:29:00,
2013-09-24 16:34:00,91.1,50.4,29.77,NNW,330,3.5,3.5,25,0.00,CLR,,0.00,WeatherDisplay:10.37,2013-09-24 23:34:00,
2013-09-24 16:39:00,90.6,51.0,29.77,NW,312,2.3,2.3,26,0.00,CLR,,0.00,WeatherDisplay:10.37,2013-09-24 23:39:00,
2013-09-24 16:44:00,90.2,47.4,29.77,NNW,330,2.3,2.3,23,0.00,CLR,,0.00,WeatherDisplay:10.37,2013-09-24 23:44:00,
2013-09-24 16:49:00,89.9,49.4,29.77,NNE,23,3.0,3.0,25,0.00,CLR,,0.00,WeatherDisplay:10.37,2013-09-24 23:49:00,
2013-09-24 16:54:00,89.1,48.7,29.77,WNW,300,3.5,3.5,25,0.00,CLR,,0.00,WeatherDisplay:10.37,2013-09-24 23:54:00,
2013-09-24 16:59:00,89.4,51.0,29.77,North,357,1.0,0.0,27,0.00,CLR,,0.00,WeatherDisplay:10.37,2013-09-24 23:59:00,
2013-09-24 17:04:00,90.0,51.5,29.77,NNW,328,3.5,3.5,27,0.00,CLR,,0.00,WeatherDisplay:10.37,2013-09-25 00:04:00,
2013-09-24 17:09:00,89.4,52.0,29.76,North,349,2.0,2.0,28,0.00,CLR,,0.00,WeatherDisplay:10.37,2013-09-25 00:09:00,
2013-09-24 17:14:00,89.5,52.1,29.76,SW,235,1.0,1.0,28,0.00,CLR,,0.00,WeatherDisplay:10.37,2013-09-25 00:14:00,
2013-09-24 17:19:00,89.4,53.0,29.76,NNW,328,1.2,0.0,29,0.00,CLR,,0.00,WeatherDisplay:10.37,2013-09-25 00:19:00,
2013-09-24 17:24:00,89.1,52.7,29.76,NNW,345,2.3,2.3,29,0.00,CLR,,0.00,WeatherDisplay:10.37,2013-09-25 00:24:00,
2013-09-24 17:29:00,88.7,52.4,29.76,WNW,301,1.2,1.2,29,0.00,CLR,,0.00,WeatherDisplay:10.37,2013-09-25 00:29:00,
2013-09-24 17:34:00,88.3,52.0,29.76,North,352,3.5,3.5,29,0.00,CLR,,0.00,WeatherDisplay:10.37,2013-09-25 00:34:00,
2013-09-24 17:39:00,87.8,51.6,29.76,West,271,2.3,2.3,29,0.00,CLR,,0.00,WeatherDisplay:10.37,2013-09-25 00:39:00,
2013-09-24 17:44:00,87.8,50.6,29.76,NW,308,1.2,1.2,28,0.00,CLR,,0.00,WeatherDisplay:10.37,2013-09-25 00:44:00,
2013-09-24 17:49:00,87.2,51.1,29.76,North,350,3.5,3.5,29,0.00,CLR,,0.00,WeatherDisplay:10.37,2013-09-25 00:49:00,
2013-09-24 17:54:00,86.3,51.2,29.76,West,264,2.3,2.3,30,0.00,CLR,,0.00,WeatherDisplay:10.37,2013-09-25 00:54:00,
2013-09-24 17:59:00,85.8,51.7,29.75,WNW,300,1.2,1.2,31,0.00,CLR,,0.00,WeatherDisplay:10.37,2013-09-25 00:59:00,
2013-09-24 18:04:00,85.2,52.0,29.75,North,349,1.2,0.0,32,0.00,CLR,,0.00,WeatherDisplay:10.37,2013-09-25 01:04:00,
2013-09-24 18:09:00,84.8,51.7,29.75,NNW,330,1.2,0.0,32,0.00,CLR,,0.00,WeatherDisplay:10.37,2013-09-25 01:09:00,
2013-09-24 18:14:00,84.4,51.3,29.75,North,4,1.2,1.2,32,0.00,CLR,,0.00,WeatherDisplay:10.37,2013-09-25 01:14:00,
2013-09-24 18:19:00,84.0,52.6,29.75,SSW,212,0.0,0.0,34,0.00,CLR,,0.00,WeatherDisplay:10.37,2013-09-25 01:19:00,
2013-09-24 18:24:00,83.7,52.3,29.75,SSW,213,1.2,1.2,34,0.00,CLR,,0.00,WeatherDisplay:10.37,2013-09-25 01:24:00,
2013-09-24 18:29:00,83.3,52.0,29.75,SSW,212,0.0,0.0,34,0.00,CLR,,0.00,WeatherDisplay:10.37,2013-09-25 01:29:00,
2013-09-24 18:34:00,82.9,52.4,29.75,SW,215,0.0,0.0,35,0.00,CLR,,0.00,WeatherDisplay:10.37,2013-09-25 01:34:00,
2013-09-24 18:39:00,82.4,52.0,29.75,SW,224,0.0,0.0,35,0.00,CLR,,0.00,WeatherDisplay:10.37,2013-09-25 01:39:00,
2013-09-24 18:44:00,81.9,52.3,29.75,SW,224,0.0,0.1,36,0.00,CLR,,0.00,WeatherDisplay:10.37,2013-09-25 01:44:00,
2013-09-24 18:49:00,81.5,52.0,29.75,NNW,339,2.0,2.0,36,0.00,CLR,,0.00,WeatherDisplay:10.37,2013-09-25 01:49:00,
2013-09-24 18:54:00,81.1,51.6,29.75,NW,315,1.2,1.2,36,0.00,CLR,,0.00,WeatherDisplay:10.37,2013-09-25 01:54:00,
2013-09-24 18:59:00,80.7,52.0,29.75,NW,315,0.0,0.0,37,0.00,CLR,,0.00,WeatherDisplay:10.37,2013-09-25 01:59:00,
2013-09-24 19:04:00,80.2,53.0,29.75,NW,315,0.0,0.0,39,0.00,CLR,,0.00,WeatherDisplay:10.37,2013-09-25 02:04:00,
2013-09-24 19:09:00,79.6,52.5,29.75,NW,322,1.2,1.2,39,0.00,CLR,,0.00,WeatherDisplay:10.37,2013-09-25 02:09:00,
2013-09-24 19:14:00,79.1,52.7,29.75,NW,322,0.0,0.0,40,0.00,CLR,,0.00,WeatherDisplay:10.37,2013-09-25 02:14:00,
2013-09-24 19:19:00,78.7,53.0,29.75,NW,322,0.0,0.0,41,0.00,CLR,,0.00,WeatherDisplay:10.37,2013-09-25 02:19:00,
2013-09-24 19:24:00,78.3,52.0,29.75,NW,322,0.0,0.0,40,0.00,CLR,,0.00,WeatherDisplay:10.37,2013-09-25 02:24:00,
2013-09-24 19:29:00,77.9,52.3,29.75,NW,322,0.0,0.0,41,0.00,CLR,,0.00,WeatherDisplay:10.37,2013-09-25 02:29:00,
2013-09-24 19:34:00,77.5,51.9,29.75,NW,322,0.0,0.0,41,0.00,CLR,,0.00,WeatherDisplay:10.37,2013-09-25 02:34:00,
2013-09-24 19:39:00,77.2,53.0,29.75,NW,322,0.0,0.0,43,0.00,CLR,,0.00,WeatherDisplay:10.37,2013-09-25 02:39:00,
2013-09-24 19:44:00,76.8,53.8,29.75,NW,322,0.0,0.0,45,0.00,CLR,,0.00,WeatherDisplay:10.37,2013-09-25 02:44:00,
2013-09-24 19:49:00,76.2,53.3,29.75,NW,322,0.0,0.0,45,0.00,CLR,,0.00,WeatherDisplay:10.37,2013-09-25 02:49:00,
2013-09-24 19:54:00,75.6,53.9,29.75,NW,322,0.0,0.0,47,0.00,CLR,,0.00,WeatherDisplay:10.37,2013-09-25 02:54:00,
2013-09-24 19:59:00,74.9,53.3,29.75,NW,322,0.0,0.0,47,0.00,CLR,,0.00,WeatherDisplay:10.37,2013-09-25 02:59:00,
2013-09-24 20:04:00,74.4,54.5,29.75,NW,322,0.0,0.0,50,0.00,CLR,,0.00,WeatherDisplay:10.37,2013-09-25 03:04:00,
2013-09-24 20:09:00,73.9,53.5,29.75,NW,322,0.0,0.0,49,0.00,CLR,,0.00,WeatherDisplay:10.37,2013-09-25 03:09:00,
2013-09-24 20:14:00,73.5,53.7,29.75,NW,322,0.0,0.0,50,0.00,CLR,,0.00,WeatherDisplay:10.37,2013-09-25 03:14:00,
2013-09-24 20:19:00,73.3,53.5,29.76,NW,322,0.0,0.0,50,0.00,CLR,,0.00,WeatherDisplay:10.37,2013-09-25 03:19:00,
2013-09-24 20:24:00,73.2,54.0,29.76,NW,322,0.0,0.0,51,0.00,CLR,,0.00,WeatherDisplay:10.37,2013-09-25 03:24:00,
2013-09-24 20:29:00,73.1,54.9,29.76,NW,322,0.0,0.0,53,0.00,CLR,,0.00,WeatherDisplay:10.37,2013-09-25 03:29:00,
2013-09-24 20:34:00,72.7,54.1,29.76,NW,321,0.0,0.0,52,0.00,CLR,,0.00,WeatherDisplay:10.37,2013-09-25 03:34:00,
2013-09-24 20:39:00,72.3,54.7,29.76,NW,321,0.0,0.0,54,0.00,CLR,,0.00,WeatherDisplay:10.37,2013-09-25 03:39:00,
2013-09-24 20:44:00,71.8,54.3,29.76,NW,322,0.0,0.0,54,0.00,CLR,,0.00,WeatherDisplay:10.37,2013-09-25 03:44:00,
2013-09-24 20:49:00,71.4,54.4,29.76,NW,322,0.0,0.0,55,0.00,CLR,,0.00,WeatherDisplay:10.37,2013-09-25 03:49:00,
2013-09-24 20:54:00,71.1,54.6,29.76,NW,322,0.0,0.0,56,0.00,CLR,,0.00,WeatherDisplay:10.37,2013-09-25 03:54:00,
2013-09-24 20:59:00,70.6,55.6,29.76,NW,322,0.0,0.0,59,0.00,CLR,,0.00,WeatherDisplay:10.37,2013-09-25 03:59:00,
2013-09-24 21:01:00,70.5,55.0,29.77,NW,322,0.0,0.0,58,0.00,CLR,,0.00,WeatherDisplay:10.37,2013-09-25 04:01:00,
2013-09-24 21:02:00,70.4,54.9,29.77,NW,322,0.0,0.0,58,0.00,CLR,,0.00,WeatherDisplay:10.37,2013-09-25 04:02:00,
2013-09-24 21:07:00,70.1,54.6,29.77,NW,322,0.0,0.0,58,0.00,CLR,,0.00,WeatherDisplay:10.37,2013-09-25 04:07:00,
2013-09-24 21:12:00,70.0,54.1,29.77,NW,322,0.0,0.0,57,0.00,CLR,,0.00,WeatherDisplay:10.37,2013-09-25 04:12:00,
2013-09-24 21:17:00,70.0,53.6,29.77,NW,322,0.0,0.0,56,0.00,CLR,,0.00,WeatherDisplay:10.37,2013-09-25 04:17:00,
2013-09-24 21:22:00,70.1,54.2,29.77,NW,322,0.0,0.0,57,0.00,CLR,,0.00,WeatherDisplay:10.37,2013-09-25 04:22:00,
2013-09-24 21:27:00,69.9,54.4,29.77,NW,322,0.0,0.0,58,0.00,CLR,,0.00,WeatherDisplay:10.37,2013-09-25 04:27:00,
2013-09-24 21:32:00,69.7,54.3,29.77,NW,322,0.0,0.0,58,0.00,CLR,,0.00,WeatherDisplay:10.37,2013-09-25 04:32:00,
2013-09-24 21:37:00,69.5,54.1,29.77,NW,322,0.0,0.0,58,0.00,CLR,,0.00,WeatherDisplay:10.37,2013-09-25 04:37:00,
2013-09-24 21:42:00,69.4,54.9,29.77,NW,322,0.0,0.0,60,0.00,CLR,,0.00,WeatherDisplay:10.37,2013-09-25 04:42:00,
2013-09-24 21:47:00,69.3,53.9,29.77,NW,322,0.0,0.0,58,0.00,CLR,,0.00,WeatherDisplay:10.37,2013-09-25 04:47:00,
2013-09-24 21:52:00,69.1,53.7,29.77,NW,322,0.0,0.0,58,0.00,CLR,,0.00,WeatherDisplay:10.37,2013-09-25 04:52:00,
2013-09-24 21:57:00,69.3,52.9,29.77,NW,322,0.0,0.0,56,0.00,CLR,,0.00,WeatherDisplay:10.37,2013-09-25 04:57:00,
2013-09-24 22:02:00,69.3,53.4,29.77,NW,322,0.0,0.0,57,0.00,CLR,,0.00,WeatherDisplay:10.37,2013-09-25 05:02:00,
2013-09-24 22:07:00,69.4,54.9,29.77,NW,322,0.0,0.0,60,0.00,CLR,,0.00,WeatherDisplay:10.37,2013-09-25 05:07:00,
2013-09-24 22:12:00,69.2,54.7,29.76,NW,322,0.0,0.0,60,0.00,CLR,,0.00,WeatherDisplay:10.37,2013-09-25 05:12:00,
2013-09-24 22:17:00,68.8,54.3,29.77,NW,322,0.0,0.0,60,0.00,CLR,,0.00,WeatherDisplay:10.37,2013-09-25 05:17:00,
2013-09-24 22:22:00,68.4,54.4,29.76,NW,322,0.0,0.0,61,0.00,CLR,,0.00,WeatherDisplay:10.37,2013-09-25 05:22:00,
2013-09-24 22:27:00,68.0,54.0,29.76,NW,322,0.0,0.0,61,0.00,CLR,,0.00,WeatherDisplay:10.37,2013-09-25 05:27:00,
2013-09-24 22:32:00,67.7,54.6,29.77,NW,322,0.0,0.0,63,0.00,CLR,,0.00,WeatherDisplay:10.37,2013-09-25 05:32:00,
2013-09-24 22:37:00,67.3,54.3,29.77,NW,322,0.0,0.0,63,0.00,CLR,,0.00,WeatherDisplay:10.37,2013-09-25 05:37:00,
2013-09-24 22:42:00,66.9,53.9,29.76,NW,322,0.0,0.0,63,0.00,CLR,,0.00,WeatherDisplay:10.37,2013-09-25 05:42:00,
2013-09-24 22:47:00,66.7,53.7,29.76,NW,322,0.0,0.0,63,0.00,CLR,,0.00,WeatherDisplay:10.37,2013-09-25 05:47:00,
2013-09-24 22:52:00,66.8,53.8,29.77,NW,322,0.0,0.0,63,0.00,CLR,,0.00,WeatherDisplay:10.37,2013-09-25 05:52:00,
2013-09-24 22:57:00,66.9,53.5,29.77,NW,322,0.0,0.0,62,0.00,CLR,,0.00,WeatherDisplay:10.37,2013-09-25 05:57:00,
2013-09-24 23:02:00,66.9,53.9,29.76,NW,322,0.0,0.0,63,0.00,CLR,,0.00,WeatherDisplay:10.37,2013-09-25 06:02:00,
2013-09-24 23:07:00,66.8,54.2,29.76,NW,322,0.0,0.0,64,0.00,CLR,,0.00,WeatherDisplay:10.37,2013-09-25 06:07:00,
2013-09-24 23:12:00,66.7,54.1,29.77,NW,322,0.0,0.0,64,0.00,CLR,,0.00,WeatherDisplay:10.37,2013-09-25 06:12:00,
2013-09-24 23:17:00,66.5,53.9,29.77,NW,322,0.0,0.0,64,0.00,CLR,,0.00,WeatherDisplay:10.37,2013-09-25 06:17:00,
2013-09-24 23:22:00,66.4,54.3,29.77,NW,322,0.0,0.0,65,0.00,CLR,,0.00,WeatherDisplay:10.37,2013-09-25 06:22:00,
2013-09-24 23:27:00,66.5,54.4,29.77,NW,309,1.2,0.0,65,0.00,CLR,,0.00,WeatherDisplay:10.37,2013-09-25 06:27:00,
2013-09-24 23:32:00,66.5,54.4,29.77,West,260,1.2,1.2,65,0.00,CLR,,0.00,WeatherDisplay:10.37,2013-09-25 06:32:00,
2013-09-24 23:37:00,66.4,54.7,29.77,West,260,0.0,0.0,66,0.00,CLR,,0.00,WeatherDisplay:10.37,2013-09-25 06:37:00,
2013-09-24 23:42:00,66.2,54.1,29.78,NNW,346,1.0,1.4,65,0.00,CLR,,0.00,WeatherDisplay:10.37,2013-09-25 06:42:00,
2013-09-24 23:47:00,66.2,53.7,29.78,North,349,1.2,1.4,64,0.00,CLR,,0.00,WeatherDisplay:10.37,2013-09-25 06:47:00,
2013-09-24 23:52:00,66.2,53.7,29.78,WNW,302,3.0,3.0,64,0.00,CLR,,0.00,WeatherDisplay:10.37,2013-09-25 06:52:00,
2013-09-24 23:57:00,65.9,53.4,29.78,North,1,2.3,2.3,64,0.00,CLR,,0.00,WeatherDisplay:10.37,2013-09-25 06:57:00,